Weather in Zhiguli

Russia / Samara Oblast     53°21′19″N   49°18′12″E
temp.,
°C
wind,
m/s
gust,
m/s
humid.,
%
clouds,
%
prec.,
mm/h
press.,
hPa
HPBL,
m
27 february, sat
sat2701:00−7sse71295100 4.2 1000408
04:00−3sse2298100 5.1 99974
07:00+1wsw61194100 0.1 998481
10:00+1wsw611100100 0.2 998493
13:00+1wsw51110098 0.1 997556
16:000wsw51010098 0.3 997485
19:000wsw4898100 0.8 997359
22:00−6nnw91398100 2.1 999332
28 february, sun
sun2801:00−10nnw9159199 0.1 1000427
04:00−12nnw81591100 0.2 1003477
07:00−14nnw71491100 0.0 1005445
10:00−15nnw71292100 0.1 1007422
13:00−13nnw61090100 0.0 1009480
16:00−13nnw61089100 0.1 1011504
19:00−16nnw5119253 0.0 1013281
22:00−18nnw499429 0.0 1016199
1 march, mon
mon101:00−18nnw489778 0.0 1017148
04:00−20nnw369884 0.0 1019124
07:00−21n489787 0.0 1021168
10:00−19n489589 0.0 1022272
13:00−17n469390 0.0 1023320
16:00−15n359279 0.0 1023261
19:00−19n239613 0.0 102423
22:00−21wnw01996 0.0 102420
2 march, tue
tue201:00−21sw2210039 0.0 102320
04:00−20s2310052 0.0 102130
07:00−19s469992 0.0 1018116
10:00−13ssw6109796 0.1 1014319
13:00−9ssw71295100 1.1 1010503
16:00−4ssw81396100 2.7 1006664
19:00−2sw61297100 1.5 1003572
22:00−2sw51098100 2.9 1002432
3 march, wed
wed301:00−3w359898 0.5 1001120
04:00−5wnw239685 0.6 100151
07:00−3nw5119694 0.8 1001570
10:00−4nnw7138997 0.9 1003638
13:00−2nnw7118795 0.0 1004896
16:00−2nnw7108697 0.1 1006958
19:00−6nw489082 0.1 1007149
22:00−5nw5129186 0.2 1010406